Regional Weather Roundup
Issued by NWS

Home | Current Version | Previous Version | Graphics & Text | Print | Product List | Glossary On
Versions: 1 2 3 4 5 6 7 8 9 10 11 12 13 14 15 16 17 18 19 20 21 22 23 24 25 26 27 28 29 30 31 32 33 34 35 36 37 38 39 40 41 42 43 44 45 46 47 48 49 50
000
ASUS43 KMKX 090321
RWRWI

WISCONSIN REGIONAL WEATHER ROUNDUP
NATIONAL WEATHER SERVICE MILWAUKEE/SULLIVAN WI
900 PM CST THU DEC 08 2016

NOTE: "FAIR" INDICATES FEW OR NO CLOUDS BELOW 12,000 FEET WITH NO
SIGNIFICANT WEATHER AND/OR OBSTRUCTIONS TO VISIBILITY.

WIZ001-002-006>008-014>016-023>028-090400-
NORTHWEST WISCONSIN

CITY           SKY/WX    TMP DP  RH WIND       PRES   REMARKS
SUPERIOR ARPT  CLOUDY    21  10  63 N9G17     30.44S WCI  10
ASHLAND        CLOUDY    20  11  68 NW8       30.39R WCI  10
HAYWARD        CLOUDY    20  10  65 NW7       30.37R WCI  11
SIREN          CLEAR     15  11  86 NW6       30.43S WCI   6
CUMBERLAND     CLOUDY    21  12  68 NW10G20   30.40R WCI  10
RICE LAKE      FLURRIES  21  14  73 W12       30.42R WCI   9
CHETEK         CLOUDY    22  14  74 NW6       30.40S WCI  14
LADYSMITH      CLOUDY    22  14  70 NW10      30.37S WCI  12
EAU CLAIRE     FLURRIES  22  17  81 W9        30.42R WCI  12
MENOMONIE      MOCLDY    21  15  78 W7        30.43R WCI  13
NEW RICHMOND   CLOUDY    19  13  78 W10       30.45R WCI   7
OSCEOLA        MOCLDY    20  14  77 W9        30.49R WCI   9
$$

WIZ003>005-009-010-017-018-090400-
NORTH CENTRAL WISCONSIN

CITY           SKY/WX    TMP DP  RH WIND       PRES   REMARKS
MANITOWISH WTR CLOUDY    18  15  86 NW12      30.27S WCI   6
ARBOR VITAE    FLURRIES  22  18  85 NW9       30.27R WCI  11
WOODRUFF       FLURRIES  22  18  85 NW9       30.27R WCI  11
RHINELANDER    LGT SNOW  20  16  84 NW8       30.27S FOG     WCI  10
EAGLE RIVER    MOCLDY    19  13  76 NW12      30.25R WCI   7
LAND O LAKES   MOCLDY    18  14  84 NW5       30.26S WCI  11
PHILLIPS       CLOUDY    19  15  84 NW6       30.31R WCI  11
TOMAHAWK       CLEAR     18  13  81 NW7       30.30R WCI   9
MEDFORD        PTCLDY    19  12  73 NW8       30.31S WCI   9
MERRILL        PTCLDY    21  13  71 NW9       30.31S WCI  11
$$

WIZ029-030-035-036-043>047-090400-
CENTRAL WISCONSIN

CITY           SKY/WX    TMP DP  RH WIND       PRES   REMARKS
WAUSAU         CLOUDY    22  12  65 NW12G21   30.31R WCI  10
MOSINEE        CLOUDY    21  18  86 NW8       30.33R WCI  12
MARSHFIELD     CLOUDY    22  14  71 NW13      30.33R WCI  10
STEVENS POINT  CLOUDY    20  14  79 W3        30.34R
WAUPACA        CLEAR     23  16  74 W8        30.34R WCI  14
WAUTOMA        MOCLDY    22  16  78 NW9       30.36R WCI  12
WISC RAPIDS    CLOUDY    22  15  75 NW7       30.36R WCI  13
CAMP DOUGLAS   CLOUDY    23  18  80 W12       30.38R WCI  12
$$

WIZ011>013-019>022-031-037>040-048>050-090400-
NORTHEAST WISCONSIN

CITY           SKY/WX    TMP DP  RH WIND       PRES   REMARKS
ANTIGO         CLOUDY    20  14  79 NW18      30.27S WCI   4
SHAWANO        CLEAR     24  19  81 W3        30.31R
OCONTO         CLEAR     23  17  79 W7        30.29R WCI  14
STURGEON BAY   MOCLDY    27  18  69 NW13G22   30.27R WCI  16
GREEN BAY      CLEAR     25  19  78 NW10      30.31R WCI  15
MANITOWOC      CLEAR     25  18  74 MISG      30.30R
APPLETON       PTCLDY    21  14  73 W12       30.29R WCI   9
CLINTONVILLE   CLEAR     23  18  80 W8        30.31S WCI  14
OSHKOSH        PTCLDY    22  15  75 W12       30.32R WCI  10
$$

WIZ032>034-041-042-053>061-090400-
SOUTHWEST WISCONSIN

CITY           SKY/WX    TMP DP  RH WIND       PRES   REMARKS
LA CROSSE      CLOUDY    25  16  68 NW12      30.44R WCI  14
SPARTA         FLURRIES  23  18  81 W7        30.42R WCI  15
VIROQUA        CLOUDY    21  17  83 W10       30.39R WCI  10
BOSCOBEL       FLURRIES  24  17  74 W8        30.45R WCI  15
PRAIRIE DU CHI CLOUDY    22  14  72 W9        30.47R WCI  12
PLATTEVILLE    CLOUDY    21  18  86 W13       30.43R WCI   9
$$

WIZ056-057-062-063-064-067-068-090400-
SOUTH CENTRAL WISCONSIN

CITY           SKY/WX    TMP DP  RH WIND       PRES   REMARKS
REEDSBURG      CLOUDY    23  18  83 W13       30.39R WCI  11
BARABOO/DELLS  CLOUDY    22  17  81 W5        30.38R WCI  16
LONE ROCK      FLURRIES  24  17  74 W12       30.42R WCI  13
MINERAL POINT  FLURRIES  23  21  93 W13       30.39S WCI  11
MADISON        PTCLDY    21  15  78 W5        30.38R WCI  15
MIDDLETON      PTCLDY    23  18  83 W12       30.38R WCI  11
WATERTOWN      MOCLDY    22  17  83 W7        30.35S WCI  13
MONROE         FLURRIES  21  19  93 W14       30.38S WCI   8
JANESVILLE     PTCLDY    25  18  74 W9G16     30.38S WCI  15
$$

WIZ051-052-058>065-066-070>072-090400-
SOUTHEAST WISCONSIN

CITY           SKY/WX    TMP DP  RH WIND       PRES   REMARKS
MILWAUKEE      MOCLDY    25  15  66 W14G23    30.33R WCI  13
WAUKESHA       CLEAR     21  16  79 W13       30.34R WCI   9
MILWAUKEE/TIMM CLEAR     21  14  73 W10       30.34R WCI  10
RACINE         MOCLDY    23  15  71 W12G20    30.35R WCI  12
BURLINGTON     CLEAR     27  22  80 W9G17     30.35S WCI  18
KENOSHA        CLEAR     22  15  75 W14       30.34S WCI   9
FOND DU LAC    CLOUDY    24  14  65 W15       30.33R WCI  11
SHEBOYGAN      CLEAR     24  16  71 NW12G22   30.30R WCI  13
WEST BEND      PTCLDY    23  19  86 W14G22    30.31S WCI  11
JUNEAU         CLOUDY    21  16  80 W8        30.35S WCI  11
$$

LSZ147-162-090400-
LAKE SUPERIOR

STATION/POSITION TIME  TEMP    WIND        PRES    WAVE
                       AIR SEA DIR/SP/G            HT/PER
                 (UTC) (F)     (DEG/KT/KT) (MB)    (FT/S)
DEVILS ISLAND    0300   22     320/ 13/ 15 1030.2R
PORT WING        0240   24     340/ 18/ 26 1029.8R
SAXON HARBOR     0230   26     320/ 17/ 23 1027.8R
$$

LMZ867-665-643>646-090400-
LAKE MICHIGAN

STATION/POSITION TIME  TEMP    WIND        PRES    WAVE
                       AIR SEA DIR/SP/G            HT/PER
                 (UTC) (F)     (DEG/KT/KT) (MB)    (FT/S)
CHAMBERS ISLAND  0240   28     300/ 10/ 19 1024.0R
NORTHPORT PIER   0240   30     310/ 22/ 28 1023.7R
SISTER BAY       0250   29     320/ 25/ 32   N/A
ALGOMA LAKESHORE 0251          310/ 11/ 15   N/A
KEWAUNEE LAKESHO 0300   26     290/  8/ 11 1024.8
SHEBOYGAN LAKESH 0300   25     300/ 14/ 17 1026.9R
PORT WASHINGTON  0240   24     290/ 10/ 16 1027.4R
MILWAUKEE LAKESH 0300   24     290/ 12/ 14   N/A
KENOSHA   LAKESH 0300   23     280/ 13/ 18 1027.4
$$

TC  - TEMPERATURE IN CELSIUS
VSB - VISIBILITY IN STATUTE MILES
WCI - WIND CHILL INDEX
HX  - HEAT INDEX





USA.gov is the U.S. government's official web portal to all federal, state and local government web resources and services.